Weather History for Valdosta Regional, GA

Change the Weather History Date:

Saturday, March 8, 2014

  Actual Average Record
Temperature  
Mean Temperature 55 °F 59 °F  
Max Temperature 73 °F 72 °F 82 °F (2012)
Min Temperature 37 °F 46 °F 33 °F (2001)
Degree Days  
Heating Degree Days 10 7  
Month to date heating degree days 87 61  
Since 1 July heating degree days 1138 1441  
Cooling Degree Days 0 1  
Month to date cooling degree days 1 8  
Year to date cooling degree days 33 18  
Growing Degree Days 4 (Base 50)    
Moisture  
Dew Point 41 °F    
Average Humidity 62    
Maximum Humidity 86    
Minimum Humidity 38    
Precipitation  
Precipitation 0.00 in - 1.25 in (1998)
Sea Level Pressure  
Sea Level Pressure 30.16 in    
Wind  
Wind Speed 1 mph (WNW)    
Max Wind Speed 6 mph    
Max Gust Speed 10 mph    
Visibility 8 miles    
Events      
T = Trace of Precipitation, MM = Missing Value Source: NWS Daily Summary

Daily Weather History Graph

Daily Weather History Graph

Search for Another Location

Airport:

Trip Planner

Search our weather history database for the weather conditions in past years. The results will help you decide how hot, cold, wet, or windy it might be!

Date:

Astronomy

Mar. 08, 2014 Rise Set
Actual Time 6:51 AM EST 6:36 PM EST
Civil Twilight 6:27 AM EST 7:00 PM EST
Nautical Twilight 5:59 AM EST 7:28 PM EST
Astronomical Twilight 5:31 AM EST 7:56 PM EST
Moon 11:56 AM EST (3/8) 1:09 AM EST (3/8)
Length of Visible Light 12h 33m
Length of Day
11h 45m
First Quarter, 51% of the Moon is Illuminated
Mar 8
First Quarter
Mar 16
Full
Mar 23
Last Quarter
Mar 30
New
Apr 7
First Quarter

Hourly Weather History & Observations

Time (EST) Temp. Windchill Dew Point Humidity Pressure Visibility Wind Dir Wind Speed Gust Speed Precip Events Conditions
12:53 AM 42.1 °F - 37.0 °F 82% 30.12 in 7.0 mi Calm Calm - N/A   Clear
1:53 AM 41.0 °F - 37.0 °F 86% 30.10 in 4.0 mi Calm Calm - N/A   Clear
2:53 AM 39.0 °F - 35.1 °F 86% 30.09 in 7.0 mi Calm Calm - N/A   Clear
3:16 AM 39.2 °F 37.0 °F 33.8 °F 81% 30.09 in 1.8 mi West 3.5 mph - N/A   Haze
3:23 AM 37.4 °F - 33.8 °F 87% 30.09 in 3.0 mi Calm Calm - N/A   Partly Cloudy
3:53 AM 39.0 °F - 35.1 °F 86% 30.13 in 1.5 mi Calm Calm - N/A   Clear
4:07 AM 39.2 °F - 35.6 °F 87% 30.10 in 3.0 mi Calm Calm - N/A   Clear
4:53 AM 39.0 °F - 35.1 °F 86% 30.14 in 6.0 mi Calm Calm - N/A   Clear
5:53 AM 37.0 °F - 33.1 °F 86% 30.16 in 5.0 mi Calm Calm - N/A   Clear
6:53 AM 37.9 °F - 34.0 °F 86% 30.17 in 5.0 mi Calm Calm - N/A   Clear
7:53 AM 45.0 °F - 39.9 °F 82% 30.20 in 6.0 mi Calm Calm - N/A   Haze
8:53 AM 54.0 °F - 46.0 °F 75% 30.22 in 7.0 mi Variable 3.5 mph - N/A   Clear
9:53 AM 59.0 °F - 45.0 °F 60% 30.23 in 10.0 mi Calm Calm - N/A   Clear
10:53 AM 63.0 °F - 44.1 °F 50% 30.23 in 10.0 mi Variable 3.5 mph - N/A   Clear
11:53 AM 66.0 °F - 44.1 °F 45% 30.22 in 10.0 mi Calm Calm - N/A   Clear
12:53 PM 68.0 °F - 45.0 °F 43% 30.19 in 10.0 mi Variable 3.5 mph - N/A   Clear
1:53 PM 71.1 °F - 45.0 °F 39% 30.18 in 10.0 mi NNW 3.5 mph - N/A   Scattered Clouds
2:53 PM 71.1 °F - 45.0 °F 39% 30.15 in 10.0 mi Calm Calm - N/A   Clear
3:53 PM 72.0 °F - 44.1 °F 37% 30.14 in 10.0 mi Calm Calm - N/A   Clear
4:53 PM 72.0 °F - 44.1 °F 37% 30.14 in 10.0 mi NW 3.5 mph - N/A   Clear
5:53 PM 68.0 °F - 46.0 °F 45% 30.14 in 10.0 mi Calm Calm - N/A   Clear
6:53 PM 60.1 °F - 46.0 °F 60% 30.15 in 10.0 mi Calm Calm - N/A   Clear
7:53 PM 55.0 °F - 46.0 °F 72% 30.15 in 10.0 mi Calm Calm - N/A   Clear
8:53 PM 52.0 °F - 44.1 °F 74% 30.18 in 10.0 mi Calm Calm - N/A   Clear
9:53 PM 50.0 °F - 44.1 °F 80% 30.20 in 10.0 mi Calm Calm - N/A   Clear
10:53 PM 48.9 °F - 44.1 °F 83% 30.20 in 10.0 mi SSW 3.5 mph - N/A   Clear
11:53 PM 48.0 °F - 43.0 °F 83% 30.21 in 10.0 mi Calm Calm - N/A   Clear